User: anonymous   Login
Location: Unspecified
(0.0000°N, 0.0000°E)
Time: 21:07:19
(UTC+00:00)
Language:

STARLINK-4754 - Orbit

View from above orbital plane
View from above orbital plane
View from above satellite
View from above satellite

Ground track
Ground track

The orbit is defined by the following mean orbital elements,

1 53842U          26145.47266631 +.00000000 +00000-0 -25686-4 0 00000
2 53842  53.2122 309.3967 0001680  95.7391 264.3793 15.08836685    09
Epoch (UTC): 25 May 2026 11:20:38
Eccentricity: 0.0001680
inclination: 53.2122°
perigee height: 539 km
apogee height: 541 km
right ascension of ascending node: 309.3967°
argument of perigee: 95.7391°
revolutions per day: 15.08836685
mean anomaly at epoch: 264.3793°

The dashed part of the orbit path shows where the satellite is in the earth's shadow,  

DLR